Regional Weather Roundup
Issued by NWS

Home | Current Version | Previous Version | Graphics & Text | Print | Product List | Glossary On
Versions: 1 2 3 4 5 6 7 8 9 10 11 12 13 14 15 16 17 18 19 20 21 22 23 24 25 26 27
000
ASUS45 KCYS 051410
RWRWY

WYOMING REGIONAL WEATHER ROUNDUP
NATIONAL WEATHER SERVICE CHEYENNE WY
700 AM MST MON DEC 05 2016

NOTE:  "FAIR" INDICATES FEW OR NO CLOUDS BELOW 12,000 FEET
WITH NO SIGNIFICANT WEATHER AND/OR OBSTRUCTIONS TO VISIBILITY.

WYZ001-051500-
YELLOWSTONE NATIONAL PARK

CITY           SKY/WX    TMP DP  RH WIND       PRES   REMARKS
LK YELLOWSTONE   N/A      4  -2  76 W7        29.68R WCI  -8
W YELLOWSTONE  NOT AVBL

$$
WYZ002>013-054>058-071-098>099-051500-
NORTHERN WYOMING

CITY           SKY/WX    TMP DP  RH WIND       PRES   REMARKS
JACKSON        CLOUDY    14   1  57 W13       29.78R WCI   0
CODY           LGT SNOW  19  16  86 N16       29.70R FOG     WCI   5
GREYBULL       CLOUDY    25  17  72 NW26      29.69R WCI   9
WORLAND        CLOUDY    25  20  81 N25       29.66R WCI   9
SHERIDAN       LGT SNOW  22  19  89 NW22      29.73R FOG     WCI   6
BUFFALO        HVY SNOW  21  16  81 NW33G43   29.63R VSB 1/4 WCI   2
GILLETTE       LGT SNOW  24  23  96 N25       29.60R VSB 1   WCI   8
HULETT         SNOW      27  23  86 N17G25    29.61R VSB 1/2 WCI  14
NEWCASTLE      FLURRIES  30  28  93 NW15G23   29.53S WCI  19

$$
WYZ014>020-022>026-101>103-051500-
CENTRAL WYOMING

CITY           SKY/WX    TMP DP  RH WIND       PRES   REMARKS
BIG PINEY      FAIR       5  -4  66 W8        29.74R WCI  -8
PINEDALE       FAIR      12   5  73 MISG      29.71R
DUBOIS         PTSUNNY   14   1  57 W16G25    29.61R WCI  -2
LANDER         FAIR      26  -1  31 NW16G26   29.63R WCI  14
RIVERTON       MOCLDY    24  16  71 NE14      29.63R WCI  12
CASPER         LGT SNOW  25  22  88 N3        29.59R VSB 3/4
DOUGLAS        LGT SNOW  27  24  89 N10       29.56R FOG     WCI  17

$$
WYZ021-027>030-104>119-051500-
SOUTHERN WYOMING

CITY           SKY/WX    TMP DP  RH WIND       PRES   REMARKS
EVANSTON       CLOUDY    19   4  51 W16       29.85R WCI   4
FORT BRIDGER   CLOUDY    20  10  65 W23G31    29.82R WCI   4
ROCK SPRINGS   MOCLDY    20   9  62 W29G43    29.76R WCI   1
DIXON          CLOUDY    31  15  51 SW23G32   29.71R WCI  18
RAWLINS        SNOW      24  20  84 W36G44    29.65R VSB 1/2 WCI   6
SARATOGA       CLOUDY    32  19  59 W12       29.64R WCI  23
LARAMIE        FAIR      26  21  81 SW13      29.57F WCI  15
CHEYENNE       FAIR      36  19  50 W16       29.56F WCI  26
TORRINGTON     FAIR      42  20  41 W12       29.52S
PINE BLUFFS    FAIR      27  19  74 CALM      29.58F

$$




USA.gov is the U.S. government's official web portal to all federal, state and local government web resources and services.